Location: Arroyo de Valdeoliva
(40.1604°N, 4.9878°W)
Time: 03:41:40
(UTC+00:00)

Gbstr 26 Del rocket - Pass Details

Date: 11 December 2025
Orbit: 490 x 1218 km, 51.8° (Epoch: 13 January)

Event Time Altitude Azimuth Distance (km) Brightness Sun altitude
Rises 17:29:04 0° 240° (WSW) 2,924 9.1 -6.7°
Reaches altitude 10° 17:31:34 10° 244° (WSW) 1,920 7.4 -7.2°
Maximum altitude 17:35:47 61° 326° (NW) 611 3.1 -7.9°
Drops below altitude 10° 17:39:33 10° 47° (NE) 1,710 4.7 -8.6°
Enters shadow 17:39:35 10° 47° (NE) 1,722 4.8 -8.6°
